Location: ???????
(38.3360°N, 23.6977°E)
Time: 23:47:19
(UTC+00:00)

Cosmos 2082 Rocket - Pass Details

Date: 17 November 2025
Orbit: 834 x 851 km, 71.0° (Epoch: 09 December)

Event Time Altitude Azimuth Distance (km) Brightness Sun altitude
Rises 17:50:26 0° 327° (NNW) 3,386 5.7 -31.1°
Reaches altitude 10° 17:53:06 10° 317° (NW) 2,448 5.1 -31.7°
Maximum altitude 17:58:00 32° 257° (WSW) 1,407 3.8 -32.6°
Drops below altitude 10° 18:02:52 10° 196° (SSW) 2,439 4.7 -33.6°
Sets 18:05:32 0° 186° (S) 3,371 5.4 -34.1°
